weather.gov     
National Weather Service

Regional Weather Roundup
NWS Homepage
This page is being discontinued on March 12, 2014.
The same data is available at this site. Please update your bookmarks.
Thank you, and we apologize for the inconvenience.
Please send an email to SR-SRH.Webmaster@noaa.gov with any concerns.


Current Version
Previous Version:    01  02  03  04  05  06  07  08  09  10  11  12  13  14  15  16  17  18  19  20  21  22  23  24  25  26  27  28  29  30  
   31  32  33  34  35  36  37  38  39  40  41  42  43  44  45  46  47  48  49  50  51  52  53  54  55  56  57  58  59  60  
[Printable]
853
NZUS01 KOTX 231010
RWROTX
EASTERN WASHINGTON/NORTHERN IDAHO ROUNDUP
NATIONAL WEATHER SERVICE, SPOKANE WA
300 AM PDT THU OCT 23 2014

Note: "fair" indicated few or no clouds below 12,000 feet with no
significant weather and/or obstructions to visibility.

...NORTHEAST WASHINGTON AND NORTHERN IDAHO PANHANDLE...

CITY           SKY/WX    TMP DP  RH WIND       PRES   REMARKS
SPOKANE INTL   MOCLDY    52  47  83 S8        29.77S
SPOKANE DOWNTO LGT RAIN  55  47  74 SW8       29.79R
COEUR D ALENE  CLOUDY    52  46  82 S9        29.77F
DEER PARK      LGT RAIN  51  47  86 S16G22    29.76F
SANDPOINT      RAIN      48  48 100 SW3       29.79S

...SOUTHEAST WASHINGTON AND SOUTHERN IDAHO PANHANDLE...

CITY           SKY/WX    TMP DP  RH WIND       PRES   REMARKS
WALLA WALLA    LGT RAIN  58  52  80 W7        29.81
PULLMAN/MOSCOW CLOUDY    54  43  66 SE5       29.83S
LEWISTON       CLOUDY    58  45  62 E3        29.81S
LOWELL           N/A     50  48  93 CALM      29.91F

...COLUMBIA BASIN...

CITY           SKY/WX    TMP DP  RH WIND       PRES   REMARKS
EPHRATA        PTCLDY    49  46  90 SW6       29.72R
MOSES LAKE     PTCLDY    54  47  77 SW8       29.74R
TRI CITIES     CLOUDY    60  51  72 S3        29.77S
HERMISTON      LGT RAIN  57  53  86 S6        29.79S
PENDLETON      LGT RAIN  56  50  80 CALM      29.81R

...EAST SLOPES CASCADES...

CITY           SKY/WX    TMP DP  RH WIND       PRES   REMARKS
THE DALLES     CLOUDY    57  48  72 NW9       29.78R
YAKIMA         MOCLDY    52  43  71 W6        29.75R
ELLENSBURG     CLEAR     47  41  80 W9        29.75R
WENATCHEE      CLEAR     48  44  86 SE6       29.73R
OMAK           CLOUDY    55  47  74 S10       29.65S

...SOUTHERN BRITISH COLUMBIA...

CITY           SKY/WX    TMP DP  RH WIND       PRES   REMARKS
PENTICTON      LGT RAIN  57  50  77 S16       29.61R
CRANBROOK      LGT RAIN  46  45  93 S8        29.73F

...WESTERN MONTANA...

CITY           SKY/WX    TMP DP  RH WIND       PRES   REMARKS
MISSOULA       CLOUDY    51  39  63 CALM      29.90S

...NEIGHBORING CITIES...

CITY           SKY/WX    TMP DP  RH WIND       PRES   REMARKS
SEATTLE        MOCLDY    52  49  89 S9        29.74F
CALGARY        MOCLDY    48  36  61 S6        29.53F




U.S. Dept. of Commerce
NOAA National Weather Service
1325 East West Highway
Silver Spring, MD 20910
E-mail: w-nws.webmaster@noaa.gov
Page last modified: May 16, 2007
NATIONAL WEATHER SERVICE: for Safety, for Work, for Fun - FOR LIFE